Terminal Aerodrome Forecast
Issued by NWS Charleston, WV

Current Version | Previous Version | Text Only | Print | Product List | Glossary Off
Versions: 1 2 3 4 5 6 7 8 9 10 11 12 13 14 15 16 17 18 19 20 21 22

000
FTUS41 KRLX 301406 AAA
TAFBKW
TAF AMD
KBKW 301406Z 3014/3112 VRB03KT 3SM BR BKN005
      TEMPO 3014/3015 6SM SCT005 SCT015
     FM301500 31008KT P6SM SCT020=

USA.gov is the U.S. government's official web portal to all federal, state and local government web resources and services.